Wind_Speed
11 16 29 16 17 11 21 15 19 11 20 14 11 12 4 16 28 33 33 36 31 32 29 27 23 20 17 16 15 14 12 9
14 14 27 30 8 9 21 23 21 23 13 3 9 10 6 10 22 24 30 30 32 28 30 27 24 25 23 18 16 16 15 12
13 21 13 28 27 12 11 16 21 20 23 16 8 13 13 17 18 20 27 33 36 28 30 34 28 26 25 19 19 20 17 17
27 13 4 10 30 25 19 18 13 17 19 14 9 18 13 27 24 21 14 36 49 30 35 33 30 26 22 26 22 21 19 19
19 21 23 12 15 23 22 26 22 18 17 12 12 12 6 24 20 22 20 14 20 30 31 28 26 23 25 23 24 22 20 23
21 19 18 24 22 25 22 17 18 20 12 15 18 11 9 8 16 18 19 20 22 25 24 28 21 26 27 24 24 25 22 21
39 33 25 23 24 23 27 27 22 16 12 15 21 20 17 10 23 15 15 18 9 15 17 24 19 28 26 28 17 20 25 26
36 39 37 32 29 30 33 33 26 25 23 29 24 21 22 27 19 25 30 25 19 25 24 31 19 24 20 27 29 28 26 27
34 37 29 20 36 33 35 29 34 33 28 29 25 26 18 27 31 29 35 35 32 31 28 21 24 24 21 26 23 19 23 28
23 35 26 25 28 38 34 32 30 31 39 35 37 37 36 37 27 41 17 23 29 24 16 21 29 30 19 20 21 16 19 20
24 26 33 37 25 27 29 33 31 36 34 41 39 40 37 42 37 29 25 25 27 30 26 27 20 28 21 20 16 13 16 19
19 22 29 27 43 28 28 30 45 39 24 39 45 42 42 43 40 38 38 29 38 35 38 33 30 29 28 31 29 21 18 21
21 24 23 23 22 40 34 34 32 31 34 33 40 44 42 45 41 44 47 46 38 41 38 29 31 29 30 29 30 28 27 25
18 20 18 17 21 20 21 39 43 39 33 32 40 45 42 33 30 36 38 40 40 40 39 36 34 33 33 33 33 32 32 28
18 19 18 19 18 23 22 28 25 31 44 46 48 51 48 42 50 40 42 39 30 29 34 38 38 39 38 39 37 36 36 34
22 14 16 16 16 17 20 14 19 22 25 36 44 41 37 45 34 29 36 38 32 36 38 38 38 41 44 44 45 43 43 44
20 23 20 22 20 19 17 18 16 19 24 27 30 34 36 36 24 27 28 37 41 37 37 39 41 41 42 43 45 46 46 47
13 18 18 19 18 19 23 19 19 17 22 27 27 26 26 32 30 32 30 31 35 35 37 41 43 43 43 43 43 43 44 45
12 11 13 16 15 17 21 21 23 20 21 27 26 25 22 22 27 34 35 40 43 44 44 44 45 43 43 42 40 41 42 41
Wind_Direction
233 208 210 232 273 272 272 268 250 309 281 198 205 219 206 162 180 199 212 214 201 215 217 207 205 186 203 202 202 184 188 197
234 232 208 216 177 197 242 253 258 274 313 278 201 207 206 152 189 204 217 213 210 215 221 221 216 200 207 206 217 206 193 202
227 261 223 219 221 211 221 241 258 271 319 330 15 330 293 165 164 178 218 211 215 209 214 225 227 219 224 222 220 224 205 207
184 215 303 215 219 226 235 233 258 283 277 316 349 345 248 180 173 176 179 203 214 203 218 219 225 212 228 226 217 223 227 225
192 185 213 207 208 210 217 232 233 249 278 312 337 12 7 187 179 173 180 179 205 207 215 218 222 216 221 225 226 218 224 236
207 205 206 199 210 201 198 208 235 229 273 301 289 266 209 207 211 197 183 195 196 201 219 228 205 218 205 216 211 217 224 235
225 222 224 221 219 202 204 201 207 204 249 254 270 266 247 214 207 217 224 227 203 196 214 229 227 223 213 232 238 212 230 225
215 229 227 223 215 204 211 203 193 194 231 248 250 252 239 238 231 229 215 218 228 227 226 218 233 228 235 231 222 223 227 242
213 218 214 218 217 210 222 216 197 200 218 236 234 239 226 238 232 219 207 210 214 227 244 224 225 223 237 254 241 235 231 232
238 226 223 235 227 224 216 195 206 204 215 226 223 224 235 231 258 242 224 219 227 229 222 233 228 211 219 231 244 260 254 247
239 227 229 229 236 236 239 211 212 213 208 221 233 234 239 235 241 232 238 240 233 236 228 232 230 235 237 237 234 243 250 242
251 246 230 234 231 232 232 233 230 209 210 221 225 230 234 241 257 240 240 249 232 230 225 230 243 244 236 239 245 240 237 236
261 259 257 243 243 243 261 254 249 231 228 224 234 231 237 244 253 263 268 262 245 238 237 230 232 234 246 252 259 254 250 252
245 253 256 249 245 232 270 240 249 247 235 238 240 244 243 240 239 251 240 241 233 233 238 239 242 240 247 252 254 256 253 251
256 265 274 269 274 267 264 255 248 263 256 254 252 246 246 252 266 233 219 214 225 232 235 241 242 247 246 247 245 246 250 250
277 285 277 241 262 274 275 269 277 279 245 243 244 239 252 237 276 269 231 223 232 238 245 245 247 246 248 249 250 249 248 252
276 274 260 276 287 282 269 272 262 250 257 251 255 260 248 259 258 256 249 232 229 242 247 249 249 249 251 252 251 251 252 252
278 289 292 285 278 277 277 271 265 255 258 261 263 271 271 267 252 251 253 250 248 243 249 251 251 251 251 251 252 253 253 254
287 291 290 292 289 272 272 268 270 263 258 263 266 268 267 268 253 240 240 241 242 246 246 249 249 251 252 252 254 254 252 253
Height
5841 5847 5849 5854 5853 5856 5856 5858 5864 5863 5859 5860 5861 5862 5865 5868 5875 5884 5890 5897 5900 5905 5909 5915 5916 5917 5922 5925 5929 5931 5934 5939
5837 5841 5846 5849 5853 5855 5855 5859 5862 5860 5856 5859 5860 5860 5863 5868 5873 5879 5884 5891 5894 5903 5907 5910 5912 5915 5920 5924 5926 5929 5931 5935
5838 5838 5844 5847 5851 5853 5856 5857 5859 5860 5859 5861 5862 5863 5862 5866 5867 5876 5881 5888 5892 5897 5902 5907 5909 5915 5918 5920 5922 5926 5927 5931
5830 5836 5839 5843 5847 5851 5853 5857 5858 5859 5860 5864 5863 5864 5862 5865 5868 5873 5879 5882 5887 5893 5898 5903 5908 5913 5914 5917 5919 5921 5923 5926
5828 5831 5832 5837 5841 5845 5848 5852 5854 5854 5857 5860 5862 5862 5863 5867 5867 5871 5876 5878 5881 5887 5893 5898 5903 5905 5909 5911 5915 5919 5919 5922
5823 5826 5829 5832 5835 5837 5842 5846 5852 5856 5856 5858 5859 5862 5866 5866 5868 5871 5872 5878 5881 5885 5889 5894 5897 5895 5888 5906 5911 5914 5917 5920
5817 5820 5823 5828 5830 5833 5834 5837 5841 5850 5853 5853 5857 5861 5865 5868 5868 5869 5870 5871 5877 5884 5889 5890 5890 5890 5892 5899 5904 5909 5912 5915
5810 5812 5819 5821 5822 5828 5823 5830 5838 5839 5843 5845 5851 5854 5861 5868 5869 5868 5867 5870 5872 5876 5881 5883 5886 5890 5893 5896 5897 5903 5904 5906
5805 5806 5811 5812 5814 5819 5820 5827 5831 5832 5836 5840 5847 5850 5855 5857 5856 5834 5855 5861 5865 5869 5873 5875 5882 5885 5886 5889 5889 5888 5891 5897
5801 5802 5807 5808 5810 5811 5811 5817 5823 5826 5830 5832 5836 5842 5847 5851 5851 5849 5851 5855 5861 5862 5867 5870 5875 5870 5880 5884 5884 5885 5889 5894
5793 5794 5799 5802 5803 5808 5808 5815 5816 5820 5822 5824 5827 5832 5839 5843 5846 5850 5852 5853 5853 5857 5860 5864 5867 5866 5871 5874 5877 5881 5886 5888
5790 5790 5793 5795 5798 5802 5801 5805 5810 5814 5813 5815 5819 5824 5831 5834 5838 5838 5838 5843 5848 5853 5855 5856 5859 5860 5866 5870 5873 5879 5882 5884
5786 5784 5786 5791 5793 5796 5797 5800 5798 5803 5809 5812 5814 5820 5823 5823 5825 5828 5831 5833 5838 5843 5846 5848 5854 5858 5860 5865 5867 5870 5876 5875
5780 5779 5783 5786 5791 5791 5792 5790 5791 5794 5800 5804 5807 5810 5814 5817 5818 5823 5826 5828 5829 5835 5839 5841 5846 5849 5852 5856 5861 5864 5866 5869
5776 5779 5780 5780 5784 5785 5785 5786 5786 5792 5794 5793 5795 5800 5805 5808 5812 5808 5813 5818 5823 5826 5830 5832 5834 5838 5843 5847 5852 5856 5859 5861
5770 5775 5774 5772 5777 5778 5777 5778 5781 5784 5785 5786 5786 5789 5792 5795 5797 5802 5805 5806 5811 5816 5820 5823 5826 5829 5833 5836 5840 5844 5848 5852
5766 5767 5771 5768 5768 5770 5772 5772 5775 5777 5777 5779 5780 5781 5785 5788 5792 5795 5799 5800 5802 5807 5810 5814 5817 5820 5823 5826 5829 5832 5834 5838
5763 5761 5761 5762 5764 5762 5762 5765 5766 5771 5771 5769 5771 5772 5775 5778 5783 5788 5791 5793 5795 5798 5801 5804 5808 5810 5812 5815 5818 5820 5823 5826
5760 5760 5759 5758 5758 5759 5758 5759 5758 5763 5765 5764 5763 5765 5768 5769 5772 5776 5781 5783 5786 5788 5792 5795 5797 5799 5802 5804 5807 5809 5812 5813